sat.trackr.live / text

‹ back to catalog

STARLINK-31818

NORAD 59741 · 2024-090M

PAYLOAD ACTIVE UNKNOWN

§ Identity

Operator
Country
US
Launch date
2024-05-13
Launch site
AFETR
Launch vehicle
Mass (kg)
RCS (m²)

Purposes: comms

External: N2YO · Heavens-Above · Gunter

§ Orbital elements

Epoch: 2026-05-24T09:08:55.368096Z

Period
94.27 min
Inclination
43.0032°
Eccentricity
0.0001360
Mean motion
15.27579216 rev/d
Perigee alt
482.1 km
Apogee alt
484.0 km
Semi-major
6,861.2 km
B*
3.4284e-5
RAAN
116.2463°
Arg perigee
289.4796°
Mean anomaly
70.5908°
Rev number
11,501

§ Raw data

STARLINK-318181 59741U 24090M   26144.38119639  .00000681  00000+0  34284-4 0  99972 59741  43.0032 116.2463 0001360 289.4796  70.5908 15.27579216115010

JSON: /api/v1/satellites/59741 · /tle

For live sub-satellite position, see the globe view (requires WebGL).

§ Visibility from observer

Set your observer location to see the next 7 days of passes ≥ 10°. The values pass through the URL so the page stays shareable.

No JS? Fill the form by hand. The geolocation button needs JavaScript.